sat.trackr.live / text

‹ back to catalog

STARLINK-4291

NORAD 52988 · 2022-076C

PAYLOAD ACTIVE UNKNOWN

§ Identity

Operator
Country
US
Launch date
2022-07-07
Launch site
AFETR
Launch vehicle
Mass (kg)
RCS (m²)

Purposes: comms

External: N2YO · Heavens-Above · Gunter

§ Orbital elements

Epoch: 2026-09-19T17:04:37.924320Z

Period
93.90 min
Inclination
53.1613°
Eccentricity
0.0001271
Mean motion
15.33545332 rev/d
Perigee alt
464.4 km
Apogee alt
466.1 km
Semi-major
6,843.4 km
B*
9.3308e-6
RAAN
287.5965°
Arg perigee
97.0133°
Mean anomaly
263.1014°
Rev number
23,234

§ Raw data

STARLINK-42911 52988U 22076C   26262.71155005 -.00000066  00000+0  93308-5 0  99912 52988  53.1613 287.5965 0001271  97.0133 263.1014 15.33545332232344

JSON: /api/v1/satellites/52988 · /tle

For live sub-satellite position, see the globe view (requires WebGL).

§ Visibility from observer

Set your observer location to see the next 7 days of passes ≥ 10°. The values pass through the URL so the page stays shareable.

No JS? Fill the form by hand. The geolocation button needs JavaScript.